Location: Cassano d�Adda
(45.5333°N, 9.5167°E)
Time: 20:24:08
(UTC+00:00)

Cosmos 1400 Rocket - Pass Details

Date: 08 December 2019
Orbit: 522 x 568 km, 81.2° (Epoch: 28 January)

Event Time Altitude Azimuth Distance (km) Brightness Sun altitude
Rises 16:05:18 0° 206° (SSW) 2,749 7.4 -4.9°
Reaches altitude 10° 16:07:35 10° 214° (SW) 1,853 6.7 -5.3°
Maximum altitude 16:11:28 41° 285° (WNW) 821 4.2 -5.9°
Drops below altitude 10° 16:15:20 10° 357° (N) 1,847 5.3 -6.5°
Sets 16:17:36 0° 5° (N) 2,739 6.1 -6.8°
